Simultaneous Nadir Overpasses (SNOs) Predictions

Prediction of SNOs between FY3D and AQUA Satellite Orbit:

Table of predicted SNOs for the next 14.0 days since TLE Epoch: 11/16/2019
Index Date (FY3D) Time (FY3D) Lat,Lon (FY3D) SZA (FY3D ) Date (AQUA) Time (AQUA) Lat,Lon (AQUA) SZA (AQUA ) Distance(km) Time Diff (sec)
1 11/17/2019 00:37:07 -67.25,-145.68 56.85 11/17/2019 00:38:08 -67.25,-145.68 56.93 0.19 61
2 11/17/2019 01:26:41 70.90, 26.74 119.75 11/17/2019 01:26:27 70.90, 26.72 119.77 1.05 14
3 11/19/2019 16:53:37 -67.02, -30.06 55.99 11/19/2019 16:54:41 -67.02, -30.05 56.08 0.45 64
4 11/19/2019 17:43:11 70.68, 142.26 120.61 11/19/2019 17:43:00 70.68, 142.25 120.63 0.51 11
5 11/22/2019 09:10:05 -66.89, 85.69 55.26 11/22/2019 09:11:12 -66.89, 85.69 55.35 0.26 67
6 11/22/2019 09:59:39 70.56,-102.04 121.35 11/22/2019 09:59:31 70.55,-102.05 121.36 0.54 8
7 11/25/2019 01:26:29 -66.92,-158.38 54.71 11/25/2019 01:27:39 -66.92,-158.39 54.80 0.43 70
8 11/25/2019 02:16:03 70.59, 13.91 121.89 11/25/2019 02:15:58 70.59, 13.88 121.91 1.11 5
9 11/25/2019 03:00:35 -80.21, -85.18 77.32 11/25/2019 02:59:22 -80.81, -83.45 76.96 73.08 73
10 11/27/2019 17:42:53 -67.01, -42.39 54.24 11/27/2019 17:44:06 -67.00, -42.42 54.33 1.56 73
11 11/27/2019 18:32:27 70.68, 129.94 122.36 11/27/2019 18:32:25 70.67, 129.88 122.38 2.23 2




NCC Satellite Simultaneous Nadir Overpasses (SNOs) Prediction Service
